Location: Meanaryar
(48.4161°N, 4.7315°W)
Time: 09:03:36
(UTC+00:00)

Cosmos 1092 Rocket - Pass Details

Date: 24 January 2021
Orbit: 954 x 995 km, 83.0° (Epoch: 02 March)

Event Time Altitude Azimuth Distance (km) Brightness Sun altitude
Rises 18:32:22 0° 176° (S) 3,648 7.1 -14.3°
Reaches altitude 10° 18:34:53 10° 173° (S) 2,700 6.4 -14.7°
Maximum altitude 18:40:58 63° 94° (E) 1,067 3.9 -15.7°
Drops below altitude 10° 18:47:02 10° 15° (NNE) 2,698 6.1 -16.7°
Sets 18:49:33 0° 12° (NNE) 3,646 6.8 -17.1°
